STARLINK-35673

Last updated on Tue Dec 16 2025 00:02:05 GMT+0000 (Coordinated Universal Time)

1 66492U 25263H 25349.03603136 .00046172 00000+0 11050-2 0 9998 2 66492 42.9991 112.1202 0001461 284.6060 75.4634 15.40723327 5918
UTC large
Height (km)
Speed (km/s)
/
Latitude / Longitude
Inclination (degrees)
Orbital Period (minutes)
Azimuth
Elevation
Range (km)
Doppler Factor

Next 0 passes for location: London (51.5072 / 0.1276)

Sorry there are no passes over London.